{"data":{"norad_id":49737,"intl_designator":"2021-115P","name":"STARLINK-3225","alt_names":[],"object_type":"PAYLOAD","status":"ACTIVE","operator":null,"country":"US","launch_date":"2021-12-02","launch_site_code":"AFETR","launch_vehicle":null,"mission":null,"orbit_class":"UNKNOWN","rcs_meters":null,"size_class":null,"mass_kg":null,"dimensions":null,"purposes":["comms"],"wikipedia_slug":null,"has_3d_model":false,"image_url":null,"decayed_at":null,"tle_current":{"epoch":"2026-09-19T19:02:19.858560Z","epoch_age_seconds":106098,"freshness":"FRESH","line1":"1 49737U 21115P   26262.79328540  .00005324  00000+0  19597-3 0  9993","line2":"2 49737  53.1624 352.6188 0001171  74.6361 285.4769 15.29479833264906","mean_motion":15.29479833,"eccentricity":0.0001171,"inclination_deg":53.1624,"raan_deg":352.6188,"arg_perigee_deg":74.6361,"mean_anomaly_deg":285.4769,"bstar":0.00019597,"rev_number":26490,"period_min":94.149655911154,"perigee_km":476.56342253424,"apogee_km":478.16898138414,"semimajor_km":6855.5032019592,"source":"CELESTRAK","updated_at":"2026-09-20T09:00:39.405399Z"}}}